星链-30332 (STARLINK-30332 )

导读

STARLINK-30332是美国SpaceX公司星链星座的一员,于2023年8月27日发射,属于低轨宽带通信卫星。星链计划旨在全球构建大规模低轨卫星互联网,为偏远地区等提供高速网络接入服务。该卫星继承星链技术路线,具备自主避撞能力,采用霍尔推进系统,寿命末期会主动离轨再入大气层销毁,目前已在轨服役两年半,持续参与星座网络运营。

基本信息
目录编号:
57700
目录名称:
STARLINK-30332
国际标识:
2023-129C
轨道中心:
EARTH
卫星名称:
星链-30332
卫星全名:
星链-30332 (STARLINK-30332 )
卫星状态:
在轨 (已飞行1104 天)
发射日期:
2023-08-27 UTC
国别 :
美国 (US)
星等 :
--
轨道信息
数据来源 国际轨道数据 AOE轨道数据
星历时间 2026-09-04T12:33:37+0800
4小时前
查看轨道信息
2026-09-03T23:00:00+0800
18小时前
查看轨道信息
半长轴 6861.226km 6861.193km
偏心率 0.0001456 0.0001387
轨道倾角 43.006° 43.002°
近地点辐角 263.693° 245.709°
升交点赤经 197.332° 200.522°
平近点角 96.375° 243.535°
近地点 482.09km 482.104km
远地点 484.088km 484.008km
周期 94.268分钟 94.267分钟
每日圈数 15.275669 15.275778
详细信息
固有亮度:
5
最大亮度:
0.3
卫星平台:
Starlink v2.0 mini
覆盖范围:
全球
运营商:
太空探索技术公司
运营商所在国:
美国
制造商(研发单位):
太空探索技术公司
制造商所在国:
美国
使用方式:
暂无
卫星简介
星链(Starlink)计划是由太空探索技术公司(SpaceX)提出的一个巨型低轨卫星互联网星座项目,计划在2019年至2024年间在太空搭建由约1.2万颗卫星组成的“星链”网络,其中1584颗将部署在地球上空550千米处的近地轨道,并从2020年开始工作。该卫星仍在工作。
2D轨道图
3D轨道图
轨道高度分析图
轨道倾角分析图
轨道综合分析图
查看轨道综合分析图
交会数据列表
事件ID 空间交会对象 最接近时刻(TCA) 交会距离 交会风险概率(CRP) 交会风险指数(CRI) 操作
CDM_260904-055005-770006-436621
2026-09-04T
05:50:54+0000
0.653 km
远距离
8.30547E-5 中风险 0.73
CDM_260904-072505-770006-436621
2026-09-04T
07:25:06+0000
2.612 km
极远距离
1.327068E-6 低风险 0.37